This is the latest recevied weather packets stored in our database for station/object KO4ZGL-13. If no packets are shown the sender has not sent any weather packets the latest 10 day(s).
| Time | Temp. | Humidity | Pressure | Rain* | Wind** | Luminosity | Snow |
|---|---|---|---|---|---|---|---|
| 1787872679 | 26.11° C | 95% | 1015.5 hPa | 0 mm | - | 1 W/m² | - |
| 1787872374 | 26.11° C | 94% | 1015.4 hPa | 0 mm | - | 2 W/m² | - |
| 1787872069 | 26.67° C | 94% | 1015.4 hPa | 0 mm | - | 3 W/m² | - |
| 1787871764 | 26.67° C | 93% | 1015.3 hPa | 0 mm | - | 6 W/m² | - |
| 1787871459 | 26.67° C | 93% | 1015.5 hPa | 0 mm | - | 6 W/m² | - |
| 1787871154 | 26.67° C | 93% | 1015.3 hPa | 0 mm | - | 10 W/m² | - |
| 1787870854 | 26.67° C | 93% | 1015.3 hPa | 0 mm | - | 9 W/m² | - |
| 1787870549 | 26.67° C | 92% | 1015.6 hPa | 0 mm | - | 7 W/m² | - |
| 1787870245 | 26.67° C | 92% | 1015.6 hPa | 0 mm | - | 9 W/m² | - |
| 1787869939 | 26.67° C | 92% | 1015.7 hPa | 0 mm | - | 7 W/m² | - |
| 1787869638 | 27.22° C | 91% | 1015.6 hPa | 0 mm | - | 18 W/m² | - |
| 1787869333 | 27.22° C | 90% | 1015.6 hPa | 0 mm | - | 28 W/m² | - |
| 1787869032 | 27.22° C | 90% | 1015.7 hPa | 0 mm | - | 35 W/m² | - |
| 1787868731 | 27.22° C | 90% | 1015.4 hPa | 0 mm | - | 49 W/m² | - |
| 1787868430 | 27.22° C | 90% | 1015.2 hPa | 0 mm | - | 66 W/m² | - |
| 1787868130 | 27.22° C | 90% | 1015 hPa | 0 mm | - | 88 W/m² | - |
| 1787867825 | 27.78° C | 89% | 1014.9 hPa | 0 mm | - | 78 W/m² | - |
| 1787867521 | 27.78° C | 87% | 1015.1 hPa | 0 mm | - | 82 W/m² | - |
| 1787867215 | 28.33° C | 85% | 1014.8 hPa | 0 mm | - | 107 W/m² | - |
| 1787866911 | 27.78° C | 85% | 1014.6 hPa | 0 mm | - | 138 W/m² | - |
| 1787866606 | 27.78° C | 85% | 1014.7 hPa | 0 mm | - | 111 W/m² | - |
| 1787866304 | 28.33° C | 84% | 1014.8 hPa | 0 mm | - | 115 W/m² | - |
| 1787865999 | 28.33° C | 84% | 1014.9 hPa | 0 mm | - | 115 W/m² | - |
| 1787865695 | 28.33° C | 84% | 1015.1 hPa | 0 mm | - | 115 W/m² | - |
| 1787865394 | 28.33° C | 84% | 1014.9 hPa | 0 mm | - | 155 W/m² | - |
* Rain latest hour (hover to see other rain measurements)
** Current wind speed in m/s (hover to see current wind gust speed)